This is the latest recevied weather packets stored in our database for station/object N7SWJ. If no packets are shown the sender has not sent any weather packets the latest 1 day(s).
| Time | Temp. | Humidity | Pressure | Rain* | Wind** | Luminosity | Snow |
|---|---|---|---|---|---|---|---|
| 1778030735 | 0.56° C | 96% | 1016.1 hPa | 0 mm | - | 4 W/m² | - |
| 1778030432 | 0.56° C | 96% | 1016.3 hPa | 0 mm | - | 4 W/m² | - |
| 1778030130 | 0.56° C | 95% | 1016.5 hPa | 0 mm | - | 5 W/m² | - |
| 1778029826 | 0.56° C | 95% | 1016.3 hPa | 0 mm | - | 7 W/m² | - |
| 1778028614 | 0.56° C | 95% | 1016.2 hPa | 0 mm | - | 15 W/m² | - |
| 1778028312 | 0.56° C | 95% | 1016 hPa | 1.78 mm | - | 16 W/m² | - |
| 1778027705 | 0.56° C | 95% | 1016.2 hPa | 0 mm | - | 17 W/m² | - |
| 1778027401 | 0.56° C | 95% | 1016.1 hPa | 0 mm | - | 23 W/m² | - |
| 1778027097 | 0.56° C | 95% | 1016.1 hPa | 0 mm | - | 24 W/m² | - |
| 1778026187 | 0.56° C | 95% | 1015.8 hPa | 1.78 mm | - | 30 W/m² | - |
| 1778023765 | 1.67° C | 95% | 1015.9 hPa | 1.27 mm | - | 37 W/m² | - |
| 1778023463 | 1.67° C | 95% | 1015.9 hPa | 1.27 mm | - | 33 W/m² | - |
| 1778022857 | 1.67° C | 95% | 1015.7 hPa | 0 mm | - | 28 W/m² | - |
| 1778022555 | 1.67° C | 95% | 1015.9 hPa | 1.78 mm | - | 42 W/m² | - |
| 1778021646 | 1.67° C | 95% | 1015.5 hPa | 1.27 mm | - | 44 W/m² | - |
| 1778017706 | 2.22° C | 94% | 1015.3 hPa | 1.78 mm | - | 89 W/m² | - |
| 1778017100 | 2.78° C | 94% | 1015.3 hPa | 0 mm | - | 84 W/m² | - |
| 1778016798 | 2.78° C | 94% | 1015 hPa | 0 mm | - | 114 W/m² | - |
| 1778016191 | 2.78° C | 94% | 1015.4 hPa | 0 mm | - | 165 W/m² | - |
| 1778015281 | 2.78° C | 94% | 1015.7 hPa | 1.78 mm | - | 159 W/m² | - |
| 1778014675 | 2.78° C | 94% | 1015.5 hPa | 0 mm | - | 124 W/m² | - |
| 1778012250 | 2.78° C | 94% | 1015.9 hPa | 1.78 mm | - | 151 W/m² | - |
| 1778011948 | 2.78° C | 94% | 1016.3 hPa | 3.05 mm | - | 182 W/m² | - |
| 1778011038 | 2.22° C | 94% | 1016.3 hPa | 1.78 mm | - | 112 W/m² | - |
| 1778010736 | 2.22° C | 94% | 1016.7 hPa | 0 mm | - | 120 W/m² | - |
* Rain latest hour (hover to see other rain measurements)
** Current wind speed in m/s (hover to see current wind gust speed)